Weather History for Tracy, MN

Change the Weather History Date:

Monday, December 2, 2013

  Actual Average (KMML) Record (KMML)
Temperature  
Mean Temperature 36 °F -  
Max Temperature 46 °F 28 °F 62 °F (1998)
Min Temperature 27 °F 11 °F -17 °F (1976)
Degree Days  
Heating Degree Days 28    
Moisture  
Dew Point 29 °F    
Average Humidity 79    
Maximum Humidity 97    
Minimum Humidity 60    
Precipitation  
Precipitation 0.00 in - - ()
Sea Level Pressure  
Sea Level Pressure 29.59 in    
Wind  
Wind Speed 8 mph (South)    
Max Wind Speed 16 mph    
Max Gust Speed 22 mph    
Visibility 7 miles    
Events Fog , Rain , Snow    
Averages and records for this station are not official NWS values.
T = Trace of Precipitation, MM = Missing Value Source: NWS Daily Summary

Daily Weather History Graph

Daily Weather History Graph

Search for Another Location

Airport:

Trip Planner

Search our weather history database for the weather conditions in past years. The results will help you decide how hot, cold, wet, or windy it might be!

Date:

Astronomy

Dec. 02, 2013 Rise Set
Actual Time 7:39 AM CST 4:44 PM CST
Civil Twilight 7:06 AM CST 5:17 PM CST
Nautical Twilight 6:30 AM CST 5:53 PM CST
Astronomical Twilight 5:55 AM CST 6:28 PM CST
Moon 7:04 AM CST (12/2) 4:49 PM CST (12/2)
Length of Visible Light 10h 10m
Length of Day
9h 05m
Waning Crescent, 0% of the Moon is Illuminated
Dec 2
Waning Crescent
Dec 2
New
Dec 9
First Quarter
Dec 17
Full
Dec 25
Last Quarter

Hourly Weather History & Observations

Time (CST) Temp. Windchill Dew Point Humidity Pressure Visibility Wind Dir Wind Speed Gust Speed Precip Events Conditions
12:18 AM 31.8 °F 23.3 °F 24.4 °F 74% 29.82 in 10.0 mi South 10.4 mph - N/A   Overcast
12:37 AM 32.0 °F 23.6 °F 24.8 °F 75% 29.81 in 10.0 mi South 10.4 mph - N/A   Overcast
12:58 AM 32.4 °F 24.0 °F 25.2 °F 75% 29.82 in 10.0 mi SSW 10.4 mph - N/A   Overcast
1:17 AM 32.2 °F 23.8 °F 25.2 °F 75% 29.80 in 10.0 mi South 10.4 mph - N/A   Overcast
1:38 AM 32.4 °F 23.0 °F 25.3 °F 75% 29.78 in 10.0 mi South 12.7 mph - N/A   Overcast
1:58 AM 32.4 °F 24.0 °F 25.7 °F 76% 29.78 in 10.0 mi South 10.4 mph - N/A   Overcast
2:18 AM 32.9 °F 24.7 °F 26.1 °F 76% 29.77 in 10.0 mi South 10.4 mph - N/A   Overcast
2:38 AM 32.9 °F 24.1 °F 26.4 °F 77% 29.77 in 7.0 mi South 11.5 mph - N/A   Overcast
2:57 AM 32.4 °F 23.5 °F 26.2 °F 78% 29.75 in 7.0 mi South 11.5 mph 16.1 mph N/A   Overcast
3:18 AM 32.4 °F 24.0 °F 26.4 °F 79% 29.74 in 7.0 mi South 10.4 mph - N/A   Overcast
3:38 AM 33.3 °F 24.6 °F 27.1 °F 78% 29.74 in 7.0 mi South 11.5 mph - N/A   Overcast
3:58 AM 33.8 °F 25.3 °F 27.1 °F 77% 29.72 in 10.0 mi South 11.5 mph - N/A   Overcast
4:17 AM 33.8 °F 25.3 °F 27.1 °F 77% 29.72 in 10.0 mi South 11.5 mph 16.1 mph N/A   Overcast
4:38 AM 33.8 °F 25.3 °F 27.1 °F 77% 29.70 in 7.0 mi South 11.5 mph - N/A   Overcast
4:57 AM 33.3 °F 25.1 °F 27.1 °F 78% 29.69 in 7.0 mi South 10.4 mph 16.1 mph N/A   Overcast
5:18 AM 33.6 °F 25.6 °F 27.3 °F 78% 29.68 in 7.0 mi South 10.4 mph - N/A   Overcast
5:38 AM 33.6 °F 26.2 °F 27.3 °F 78% 29.67 in 7.0 mi South 9.2 mph 16.1 mph N/A   Overcast
5:58 AM 33.4 °F 24.8 °F 27.5 °F 79% 29.66 in 7.0 mi South 11.5 mph - N/A   Overcast
6:18 AM 33.1 °F 25.5 °F 27.5 °F 80% 29.65 in 7.0 mi South 9.2 mph - N/A   Overcast
6:38 AM 33.1 °F 26.1 °F 27.5 °F 80% 29.64 in 7.0 mi SSE 8.1 mph - N/A   Overcast
6:58 AM 33.3 °F 25.1 °F 27.5 °F 79% 29.63 in 7.0 mi South 10.4 mph 18.4 mph N/A   Overcast
7:18 AM 32.9 °F - 27.5 °F 81% 29.63 in 7.0 mi Calm Calm - N/A   Overcast
7:38 AM 32.9 °F 25.3 °F 27.9 °F 82% 29.62 in 7.0 mi SSE 9.2 mph - N/A   Overcast
7:58 AM 33.4 °F 25.4 °F 28.0 °F 81% 29.61 in 7.0 mi SSE 10.4 mph - N/A   Overcast
8:18 AM 33.6 °F 25.6 °F 28.4 °F 81% 29.61 in 7.0 mi South 10.4 mph - N/A   Overcast
8:37 AM 33.8 °F 25.3 °F 28.4 °F 81% 29.60 in 7.0 mi South 11.5 mph - N/A   Overcast
8:57 AM 34.0 °F 27.2 °F 28.6 °F 81% 29.61 in 7.0 mi SSE 8.1 mph - N/A   Overcast
9:17 AM 34.9 °F 26.2 °F 29.1 °F 79% 29.60 in 7.0 mi South 12.7 mph 17.3 mph N/A   Overcast
9:37 AM 34.2 °F 25.7 °F 30.0 °F 85% 29.60 in 4.0 mi South 11.5 mph - N/A Rain Rain
9:57 AM 34.2 °F 25.2 °F 30.9 °F 88% 29.58 in 5.0 mi South 12.7 mph 19.6 mph N/A   Overcast
10:18 AM 34.2 °F 25.7 °F 31.6 °F 90% 29.58 in 4.0 mi South 11.5 mph 17.3 mph N/A   Overcast
10:37 AM 35.1 °F 27.9 °F 32.0 °F 89% 29.58 in 5.0 mi SSE 9.2 mph - N/A   Overcast
10:57 AM 36.0 °F 28.0 °F 32.5 °F 87% 29.57 in 5.0 mi SSE 11.5 mph - N/A   Overcast
11:17 AM 36.7 °F 28.4 °F 32.9 °F 86% 29.57 in 5.0 mi SSE 12.7 mph - N/A   Overcast
11:37 AM 37.0 °F 29.8 °F 33.1 °F 86% 29.55 in 5.0 mi South 10.4 mph 16.1 mph N/A   Overcast
11:57 AM 39.4 °F 30.7 °F 34.2 °F 82% 29.53 in 7.0 mi South 16.1 mph - N/A   Overcast
12:17 PM 39.2 °F 30.5 °F 33.8 °F 81% 29.53 in 7.0 mi South 16.1 mph 21.9 mph N/A   Overcast
12:37 PM 40.5 °F 33.6 °F 34.9 °F 80% 29.51 in 7.0 mi SSE 11.5 mph - N/A   Mostly Cloudy
12:58 PM 41.9 °F 36.3 °F 34.0 °F 73% 29.52 in 7.0 mi South 9.2 mph - N/A   Scattered Clouds
1:18 PM 43.9 °F 38.8 °F 34.9 °F 71% 29.51 in 7.0 mi SSW 9.2 mph - N/A   Scattered Clouds
1:37 PM 44.2 °F 38.0 °F 33.8 °F 67% 29.50 in 10.0 mi South 12.7 mph - N/A   Scattered Clouds
1:57 PM 44.6 °F 39.7 °F 33.3 °F 64% 29.50 in 10.0 mi South 9.2 mph - N/A   Scattered Clouds
2:18 PM 45.3 °F 41.1 °F 33.1 °F 62% 29.49 in 10.0 mi SSW 8.1 mph - N/A   Clear
2:37 PM 45.7 °F 42.0 °F 33.1 °F 61% 29.48 in 10.0 mi SSW 6.9 mph - N/A   Clear
2:58 PM 46.2 °F 42.7 °F 32.9 °F 60% 29.48 in 10.0 mi South 6.9 mph - N/A   Clear
3:17 PM 46.4 °F - 33.1 °F 60% 29.48 in 10.0 mi Calm Calm - N/A   Clear
3:37 PM 45.9 °F 44.6 °F 32.9 °F 61% 29.48 in 10.0 mi SSW 3.5 mph - N/A   Clear
3:57 PM 44.6 °F - 32.4 °F 62% 29.48 in 10.0 mi Calm Calm - N/A   Clear
4:18 PM 43.3 °F - 32.0 °F 64% 29.48 in 10.0 mi Calm Calm - N/A   Clear
4:37 PM 41.0 °F - 31.8 °F 70% 29.48 in 10.0 mi Calm Calm - N/A   Clear
4:58 PM 40.3 °F - 31.6 °F 71% 29.49 in 10.0 mi Calm Calm - N/A   Clear
5:18 PM 39.0 °F - 30.7 °F 72% 29.48 in 10.0 mi Calm Calm - N/A   Clear
5:38 PM 39.4 °F - 30.9 °F 72% 29.50 in 10.0 mi Calm Calm - N/A   Clear
5:57 PM 37.4 °F - 29.7 °F 74% 29.50 in 10.0 mi Calm Calm - N/A   Clear
6:18 PM 35.6 °F - 27.9 °F 73% 29.52 in 10.0 mi Calm Calm - N/A   Clear
6:38 PM 32.0 °F - 26.4 °F 80% 29.52 in 10.0 mi Calm Calm - N/A   Clear
6:58 PM 33.1 °F - 27.5 °F 80% 29.52 in 10.0 mi Calm Calm - N/A   Clear
7:17 PM 37.4 °F - 30.4 °F 76% 29.53 in 10.0 mi Calm Calm - N/A   Clear
7:37 PM 33.8 °F - 28.2 °F 80% 29.52 in 10.0 mi Calm Calm - N/A   Clear
7:57 PM 33.4 °F - 28.6 °F 82% 29.53 in 10.0 mi Calm Calm - N/A   Clear
8:18 PM 33.1 °F - 28.2 °F 82% 29.53 in 7.0 mi Calm Calm - N/A   Scattered Clouds
8:38 PM 33.1 °F - 29.3 °F 86% 29.53 in 7.0 mi Calm Calm - N/A   Scattered Clouds
8:58 PM 30.7 °F - 28.0 °F 90% 29.53 in 5.0 mi Calm Calm - N/A   Clear
9:17 PM 30.7 °F - 28.4 °F 91% 29.53 in 5.0 mi Calm Calm - N/A   Clear
9:37 PM 30.2 °F - 28.4 °F 93% 29.53 in 5.0 mi Calm Calm - N/A   Clear
9:58 PM 29.3 °F - 27.5 °F 93% 29.55 in 5.0 mi Calm Calm - N/A   Clear
10:18 PM 27.0 °F - 25.5 °F 94% 29.55 in 4.0 mi Calm Calm - N/A   Scattered Clouds
10:38 PM 28.6 °F - 27.5 °F 96% 29.56 in 0.5 mi Calm Calm - N/A Fog Light Freezing Fog
10:57 PM 30.2 °F - 29.3 °F 96% 29.56 in 0.2 mi Calm Calm - N/A Fog Light Freezing Fog
11:17 PM 32.0 °F - 31.3 °F 97% 29.56 in 0.2 mi Calm Calm - N/A Snow Light Snow
11:37 PM 32.7 °F - 32.0 °F 97% 29.57 in 0.2 mi Calm Calm - N/A Fog Fog
11:58 PM 33.1 °F - 32.2 °F 96% 29.57 in 0.2 mi Calm Calm - N/A Fog Fog